TimeCEST,TemperatureF,Dew PointF,Humidity,Sea Level PressureIn,VisibilityMPH,Wind Direction,Wind SpeedMPH,Gust SpeedMPH,PrecipitationIn,Events,Conditions,WindDirDegrees,DateUTC
12:55 AM,69.8,62.6,78,29.86,-9999.0,NNW,2.3,-,N/A,,Clear,330,2013-06-23 22:55:00
1:55 AM,68.0,57.2,68,29.86,-9999.0,NNW,4.6,-,N/A,,Clear,330,2013-06-23 23:55:00
2:55 AM,68.0,59.0,73,29.86,-9999.0,NNW,2.3,-,N/A,,Clear,330,2013-06-24 00:55:00
3:55 AM,64.4,53.6,68,29.86,-9999.0,West,2.3,-,N/A,,Clear,280,2013-06-24 01:55:00
4:55 AM,62.6,53.6,72,29.83,-9999.0,WNW,2.3,-,N/A,,Clear,290,2013-06-24 02:55:00
5:55 AM,62.6,53.6,72,29.83,-9999.0,West,8.1,-,N/A,,Clear,270,2013-06-24 03:55:00
6:55 AM,68.0,53.6,60,29.83,-9999.0,West,9.2,-,N/A,,Clear,270,2013-06-24 04:55:00
7:55 AM,69.8,55.4,60,29.83,-9999.0,West,17.3,-,N/A,,Clear,270,2013-06-24 05:55:00
8:55 AM,75.2,57.2,53,29.83,-9999.0,West,13.8,-,N/A,,Clear,260,2013-06-24 06:55:00
9:55 AM,77.0,55.4,47,29.83,-9999.0,West,10.4,-,N/A,,Clear,260,2013-06-24 07:55:00
10:55 AM,80.6,53.6,39,29.83,-9999.0,WSW,8.1,-,N/A,,Clear,250,2013-06-24 08:55:00
11:55 AM,82.4,51.8,35,29.83,6.2,WSW,12.7,-,N/A,,Partly Cloudy,250,2013-06-24 09:55:00
12:55 PM,84.2,55.4,37,29.80,6.2,WSW,12.7,-,N/A,,Partly Cloudy,240,2013-06-24 10:55:00
1:08 PM,84.2,55.4,37,29.80,6.2,WSW,12.7,-,N/A,,Partly Cloudy,240,2013-06-24 11:08:00
1:55 PM,86.0,57.2,37,29.80,6.2,WSW,11.5,-,N/A,,Partly Cloudy,240,2013-06-24 11:55:00
2:55 PM,87.8,55.4,33,29.77,6.2,WSW,15.0,-,N/A,,Scattered Clouds,240,2013-06-24 12:55:00
3:55 PM,84.2,55.4,37,29.80,6.2,West,21.9,-,N/A,,Scattered Clouds,260,2013-06-24 13:55:00
4:55 PM,84.2,53.6,35,29.80,6.2,West,23.0,-,N/A,,Partly Cloudy,270,2013-06-24 14:55:00
5:55 PM,82.4,53.6,37,29.80,-9999.0,West,23.0,-,N/A,,Clear,280,2013-06-24 15:55:00
6:55 PM,80.6,51.8,37,29.80,-9999.0,West,18.4,-,N/A,,Clear,270,2013-06-24 16:55:00
7:55 PM,75.2,51.8,44,29.80,-9999.0,West,23.0,-,N/A,,Clear,270,2013-06-24 17:55:00
8:55 PM,73.4,50.0,44,29.80,-9999.0,West,20.7,-,N/A,,Clear,260,2013-06-24 18:55:00
9:55 PM,71.6,48.2,43,29.83,-9999.0,West,20.7,-,N/A,,Clear,260,2013-06-24 19:55:00
10:55 PM,68.0,44.6,43,29.86,-9999.0,West,21.9,-,N/A,,Clear,260,2013-06-24 20:55:00
11:55 PM,68.0,46.4,46,29.83,-9999.0,West,17.3,-,N/A,,Clear,260,2013-06-24 21:55:00